Weather History for Shaw AFB, SC

Change the Weather History Date:

Thursday, June 13, 2013

  Actual Average Record
Temperature  
Mean Temperature 84 °F -  
Max Temperature 96 °F 84 °F 96 °F (2002)
Min Temperature 73 °F 65 °F 57 °F (1999)
Cooling Degree Days 19    
Growing Degree Days 34 (Base 50)    
Moisture  
Dew Point 70 °F    
Average Humidity 68    
Maximum Humidity 91    
Minimum Humidity 39    
Precipitation  
Precipitation 0.21 in - - ()
Sea Level Pressure  
Sea Level Pressure 29.79 in    
Wind  
Wind Speed 10 mph (WSW)    
Max Wind Speed 25 mph    
Max Gust Speed 40 mph    
Visibility 9 miles    
Events Rain , Thunderstorm    
Averages and records for this station are not official NWS values.
T = Trace of Precipitation, MM = Missing Value Source: NWS Daily Summary

Daily Weather History Graph

Daily Weather History Graph

Search for Another Location

Airport:

Trip Planner

Search our weather history database for the weather conditions in past years. The results will help you decide how hot, cold, wet, or windy it might be!

Date:

Astronomy

Jun. 13, 2013 Rise Set
Actual Time 6:10 AM EDT 8:34 PM EDT
Civil Twilight 5:41 AM EDT 9:03 PM EDT
Nautical Twilight 5:05 AM EDT 9:39 PM EDT
Astronomical Twilight 4:25 AM EDT 10:18 PM EDT
Moon 10:35 AM EDT (6/13) 11:51 PM EDT (6/13)
Length of Visible Light 15h 22m
Length of Day
14h 23m
Waxing Crescent, 21% of the Moon is Illuminated
Jun 13
Waxing Crescent
Jun 16
First Quarter
Jun 23
Full
Jun 30
Last Quarter
Jul 8
New

Hourly Weather History & Observations

Time (EDT) Temp. Heat Index Dew Point Humidity Pressure Visibility Wind Dir Wind Speed Gust Speed Precip Events Conditions
12:13 AM 80.6 °F 84.6 °F 71.6 °F 74% 29.90 in 8.0 mi WSW 6.9 mph - N/A   Mostly Cloudy
12:18 AM 82.4 °F 86.3 °F 69.8 °F 66% 29.90 in 10.0 mi WSW 6.9 mph - N/A   Mostly Cloudy
12:58 AM 82.4 °F 85.4 °F 68.4 °F 62% 29.89 in 10.0 mi SW 5.8 mph - N/A   Scattered Clouds
1:58 AM 78.6 °F - 69.6 °F 74% 29.88 in 10.0 mi SSW 2.3 mph - N/A   Clear
2:58 AM 79.2 °F - 70.0 °F 73% 29.88 in 10.0 mi SW 8.1 mph - N/A   Clear
3:58 AM 79.2 °F - 69.6 °F 72% 29.87 in 10.0 mi WSW 5.8 mph - N/A   Scattered Clouds
4:58 AM 76.6 °F - 72.0 °F 85% 29.87 in 10.0 mi SW 5.8 mph - N/A   Scattered Clouds
5:58 AM 76.3 °F - 71.4 °F 85% 29.87 in 10.0 mi WSW 5.8 mph - N/A   Clear
6:58 AM 77.0 °F - 72.7 °F 86% 29.86 in 10.0 mi SW 5.8 mph - N/A   Clear
7:58 AM 80.4 °F 84.1 °F 71.1 °F 73% 29.85 in 10.0 mi SW 11.5 mph - N/A   Clear
8:58 AM 84.2 °F 88.7 °F 70.5 °F 63% 29.85 in 10.0 mi SW 11.5 mph - N/A   Clear
9:58 AM 87.6 °F 92.7 °F 70.2 °F 56% 29.84 in 10.0 mi WSW 12.7 mph 20.7 mph N/A   Clear
10:58 AM 89.4 °F 93.5 °F 68.4 °F 50% 29.83 in 10.0 mi WSW 15.0 mph 21.9 mph N/A   Clear
11:58 AM 91.8 °F 94.2 °F 65.8 °F 42% 29.83 in 10.0 mi SW 16.1 mph 21.9 mph N/A   Clear
12:58 PM 93.0 °F 96.9 °F 67.5 °F 43% 29.80 in 10.0 mi SW 15.0 mph - N/A   Clear
1:58 PM 94.5 °F 99.1 °F 68.0 °F 42% 29.78 in 10.0 mi WSW 17.3 mph 25.3 mph N/A   Partly Cloudy
2:58 PM 95.4 °F 99.7 °F 67.8 °F 40% 29.75 in 10.0 mi SW 15.0 mph 26.5 mph N/A   Clear
3:58 PM 95.7 °F 99.8 °F 67.1 °F 39% 29.74 in 10.0 mi SW 18.4 mph 27.6 mph N/A   Clear
4:58 PM 95.5 °F 99.4 °F 67.3 °F 39% 29.71 in 10.0 mi SW 18.4 mph 24.2 mph N/A   Clear
5:58 PM 94.6 °F 99.4 °F 68.2 °F 42% 29.71 in 10.0 mi WSW 17.3 mph 26.5 mph N/A   Clear
6:58 PM 91.6 °F 95.7 °F 68.4 °F 46% 29.72 in 10.0 mi WSW 12.7 mph 21.9 mph N/A   Clear
7:58 PM 89.2 °F 93.2 °F 68.5 °F 50% 29.71 in 10.0 mi SW 10.4 mph - N/A   Clear
8:58 PM 85.8 °F 89.4 °F 68.4 °F 56% 29.67 in 10.0 mi South 13.8 mph - N/A   Clear
9:58 PM 85.3 °F 89.1 °F 68.9 °F 58% 29.73 in 10.0 mi NNW 12.7 mph 19.6 mph N/A   Scattered Clouds
10:22 PM 82.4 °F 86.3 °F 69.8 °F 66% 29.76 in 10.0 mi NW 12.7 mph 32.2 mph N/A Rain , Thunderstorm Light Rain
10:26 PM 80.6 °F 84.6 °F 71.6 °F 74% 29.77 in 8.0 mi WNW 21.9 mph 40.3 mph N/A Rain , Thunderstorm Light Rain
10:29 PM 78.8 °F - 71.6 °F 78% 29.75 in 6.0 mi NW 25.3 mph 40.3 mph N/A Rain , Thunderstorm Light Thunderstorms and Rain
10:34 PM 75.2 °F - 69.8 °F 83% 29.75 in 2.5 mi NW 20.7 mph 40.3 mph N/A Rain , Thunderstorm Heavy Thunderstorms and Rain
10:35 PM 75.2 °F - 69.8 °F 83% 29.75 in 2.0 mi NNW 17.3 mph 40.3 mph N/A Rain , Thunderstorm Heavy Thunderstorms and Rain
10:37 PM 73.4 °F - 69.8 °F 88% 29.74 in 2.0 mi North 15.0 mph 34.5 mph N/A Rain , Thunderstorm Heavy Thunderstorms and Rain
10:38 PM 73.4 °F - 69.8 °F 88% 29.74 in 2.0 mi North 13.8 mph 34.5 mph N/A Rain , Thunderstorm Heavy Thunderstorms and Rain
10:43 PM 73.4 °F - 68.0 °F 83% 29.75 in 4.0 mi NNW 8.1 mph 28.8 mph N/A Rain , Thunderstorm Light Thunderstorms and Rain
10:48 PM 73.4 °F - 68.0 °F 83% 29.74 in 10.0 mi NW 4.6 mph - N/A Rain , Thunderstorm Light Thunderstorms and Rain
10:54 PM 73.4 °F - 69.8 °F 88% 29.75 in 10.0 mi WNW 8.1 mph - N/A Thunderstorm Light Drizzle
10:56 PM 73.4 °F - 69.8 °F 88% 29.74 in 10.0 mi West 8.1 mph - N/A Thunderstorm Partly Cloudy
10:58 PM 75.2 °F - 69.8 °F 83% 29.74 in 10.0 mi WNW 9.2 mph - 0.20 in Thunderstorm Partly Cloudy
11:13 PM 75.2 °F - 69.8 °F 83% 29.77 in 10.0 mi SSW 6.9 mph - N/A Rain , Thunderstorm Light Rain
11:42 PM 75.2 °F - 71.6 °F 89% 29.76 in 10.0 mi East 2.3 mph - N/A Thunderstorm Partly Cloudy
11:58 PM 74.8 °F - 72.0 °F 91% 29.76 in 10.0 mi Calm Calm - 0.01 in   Mostly Cloudy